Wind_Speed
15 17 21 21 22 22 24 25 26 28 29 30 32 33 34 35 36 35 31 26 24 25 34 42 43 44 44 46 46 44 39 34 30 27 24 22 19 16 13 11 6 4 8 9 10 12 14 15 15 13 10 9 10 10 11 11 11 11 10 10 11 11 11 12 13 14 16 16 16 15 14 12 10 9 8 8 7 6 6 6 6 6 5 5 6
22 22 23 24 24 24 24 24 25 26 27 28 29 30 31 32 32 34 31 28 26 27 36 42 43 44 44 45 44 41 36 31 27 23 21 19 16 13 12 11 6 6 9 9 9 11 13 14 13 13 10 8 8 9 9 10 9 9 8 8 9 9 10 11 12 12 14 15 16 17 15 13 12 11 9 8 8 7 7 6 6 6 5 5 5
25 25 25 25 26 26 25 24 24 25 26 27 27 28 28 28 30 31 29 27 28 31 37 40 41 42 42 43 42 38 32 28 24 20 18 16 14 12 11 11 8 9 11 9 8 10 12 14 13 11 9 6 5 6 7 7 7 7 7 6 6 7 7 9 10 11 12 13 15 16 15 14 13 12 11 10 9 8 8 7 6 5 5 5 5
25 26 26 27 26 25 24 23 23 24 24 24 25 26 26 26 27 27 27 28 31 33 36 38 39 40 41 41 38 33 28 25 21 17 16 14 14 12 11 12 11 11 13 11 8 9 12 13 12 10 8 6 4 5 4 5 5 4 5 5 4 5 5 6 8 9 9 10 12 13 13 13 14 13 13 12 11 10 9 8 6 5 5 5 5
26 26 27 26 25 24 23 23 22 22 22 22 24 24 24 25 25 25 26 28 30 33 35 36 37 38 38 36 32 28 25 21 17 15 15 15 15 14 14 14 13 12 14 14 11 11 13 13 11 9 7 6 6 6 4 5 5 5 6 6 6 6 5 5 7 7 7 7 9 11 10 11 12 13 14 13 12 11 10 8 7 6 5 4 4
27 27 27 26 24 23 22 22 21 21 20 21 22 23 24 24 25 26 26 27 30 33 35 35 35 35 33 29 26 24 21 18 16 16 16 16 16 16 16 15 14 14 15 15 13 13 14 14 11 8 7 6 8 8 5 6 6 6 7 8 8 9 7 5 7 8 7 5 7 9 9 9 10 11 13 13 13 12 11 10 8 7 5 4 4
28 28 26 24 22 21 21 20 19 19 20 21 21 22 23 25 25 26 26 28 31 32 32 32 31 29 26 22 21 20 19 18 18 18 17 17 17 17 16 16 15 15 15 14 13 13 13 13 12 9 7 7 8 7 4 4 5 6 6 7 8 10 9 5 5 7 8 8 7 8 9 9 10 11 11 12 13 13 11 10 10 9 6 4 3
28 27 25 22 21 20 19 19 19 19 20 21 21 23 24 25 26 26 28 30 30 29 28 27 26 23 19 18 19 18 19 19 19 19 18 17 17 17 17 18 18 17 16 14 13 13 12 12 11 11 10 7 5 4 3 4 5 6 5 7 7 8 9 5 4 6 8 10 8 8 9 10 11 12 11 11 12 13 11 10 10 10 8 5 3
28 26 24 22 21 20 18 18 19 20 20 20 21 22 24 25 26 28 30 30 27 25 24 23 21 17 16 17 17 18 20 19 19 19 18 18 18 19 20 20 20 19 17 15 14 13 12 11 11 10 10 7 5 5 5 6 6 5 5 6 7 8 9 7 7 7 8 9 9 8 9 10 11 12 11 11 11 11 12 11 10 11 10 8 5
27 25 23 22 20 18 18 19 20 20 20 20 21 23 24 25 27 28 28 25 22 21 21 19 16 14 15 16 16 19 20 19 18 18 19 20 21 23 23 24 23 23 21 18 16 14 13 13 12 11 10 7 5 5 5 5 5 5 5 6 8 8 9 9 10 11 9 9 9 9 10 10 10 10 11 10 10 10 11 10 10 10 10 9 7
26 25 23 21 19 19 20 21 21 21 20 20 22 23 25 26 26 25 22 20 19 19 17 15 13 14 14 15 17 19 19 19 19 20 22 24 26 26 28 29 30 30 29 25 21 18 16 15 14 14 13 8 4 4 4 4 3 3 4 6 8 9 9 11 12 11 11 10 10 11 11 11 10 10 10 10 10 10 10 10 10 10 10 9 8
25 24 22 20 19 20 21 22 23 22 21 21 21 22 23 23 22 20 17 17 17 16 13 12 13 13 13 15 18 20 20 20 21 24 25 27 29 31 32 33 33 34 34 32 28 24 20 17 16 17 16 11 6 3 4 4 3 3 4 7 10 11 11 12 13 11 10 11 12 13 13 13 11 10 10 9 9 9 9 10 10 9 9 9 8
24 22 21 20 20 21 22 23 23 23 22 21 20 20 20 19 17 15 15 15 14 12 11 13 13 13 14 18 21 21 21 21 23 25 25 29 32 33 34 34 34 34 36 36 34 30 25 21 19 19 19 16 11 5 2 2 3 3 5 8 11 13 14 13 13 12 11 12 13 14 14 13 11 11 11 10 9 9 9 10 10 10 9 9 8
22 21 20 20 21 22 23 23 23 22 21 19 18 17 16 14 14 14 14 13 11 11 12 14 14 14 16 20 21 21 21 21 22 23 24 28 32 33 35 35 34 33 34 37 37 34 30 26 23 21 22 22 17 12 8 5 4 4 5 8 12 15 16 15 13 12 11 11 13 13 14 13 11 11 11 11 10 9 9 9 10 10 10 9 8
21 20 21 21 22 23 23 22 21 19 18 16 14 12 12 12 13 13 12 11 10 11 13 14 14 15 17 19 20 20 20 20 20 21 21 23 27 30 33 35 35 33 32 35 38 36 31 28 27 24 23 23 22 20 17 13 10 8 7 9 12 14 16 14 13 11 11 11 12 13 14 13 12 11 10 10 11 11 10 10 10 10 10 9 8
21 21 22 22 22 22 20 19 18 16 14 12 10 10 11 11 11 10 9 9 10 11 12 13 14 15 17 18 18 18 19 19 18 17 17 18 21 26 30 32 34 35 32 33 36 36 31 27 28 29 27 25 24 24 23 20 17 12 10 11 12 13 13 13 13 12 12 12 13 13 13 13 13 12 10 10 10 12 12 11 10 10 9 8 8
21 22 22 22 21 19 17 16 14 11 9 9 9 10 10 10 9 8 8 9 10 11 11 12 14 15 17 17 17 18 18 17 16 14 14 14 16 21 26 30 32 34 33 31 33 35 31 26 28 32 33 31 28 27 26 23 20 16 14 13 14 15 16 16 16 15 15 15 15 15 16 15 14 13 12 10 10 11 11 11 11 11 10 8 7
22 22 22 20 18 16 14 12 9 7 7 8 9 9 8 8 7 8 9 9 10 11 12 13 14 15 16 17 17 18 17 16 14 12 11 11 12 17 24 28 30 32 31 29 30 34 31 26 26 31 34 33 31 30 28 26 23 21 20 20 21 22 23 23 23 23 21 20 18 18 18 18 16 13 12 11 10 10 10 11 11 11 10 8 6
22 21 19 17 14 11 9 7 5 6 7 8 8 7 7 7 8 10 10 10 10 12 13 14 15 16 16 17 18 17 16 16 14 12 10 10 11 16 23 26 27 30 30 28 29 32 31 26 24 28 31 31 30 30 29 29 28 28 28 28 28 29 29 28 28 27 25 24 22 21 21 17 16 15 11 10 10 9 10 11 11 11 10 9 7
20 18 15 12 9 7 5 4 5 6 7 7 6 6 7 8 9 10 10 10 11 12 14 15 16 16 16 17 18 17 15 14 13 11 9 10 12 16 22 24 25 27 27 25 26 29 30 26 23 23 27 29 29 30 30 30 30 30 30 30 31 32 32 33 33 31 29 26 24 24 24 22 14 14 12 8 9 10 10 10 11 11 10 9 8
16 12 9 7 5 4 4 5 5 6 6 6 6 8 9 9 9 10 10 10 12 13 14 15 15 16 16 16 16 16 14 13 11 10 10 11 13 17 21 23 23 25 25 22 22 25 27 25 22 20 23 25 26 27 27 27 27 27 27 28 28 29 31 32 34 35 35 32 30 27 26 26 20 10 12 10 10 11 10 11 10 10 10 10 9
10 7 6 5 4 4 4 5 5 5 6 7 9 10 10 9 9 9 10 11 13 14 14 15 15 15 16 15 15 15 13 12 11 10 10 10 12 17 20 22 23 24 23 20 19 20 22 23 20 18 19 21 22 22 23 23 23 24 25 25 26 27 29 30 32 34 37 38 37 34 30 29 27 15 9 12 12 11 11 11 10 10 11 11 11
6 5 5 5 5 5 5 5 4 6 8 10 11 11 9 9 9 10 12 13 14 14 14 14 14 14 14 14 14 13 12 11 11 10 9 10 13 17 19 21 22 23 22 19 17 16 17 19 18 16 16 16 17 19 19 20 21 22 23 24 26 27 29 30 31 32 34 37 40 40 38 33 31 26 14 10 13 12 11 10 10 10 10 10 11
5 5 5 5 5 5 4 4 5 8 10 11 11 10 9 9 11 12 13 14 14 13 13 13 13 13 12 12 12 12 11 10 9 8 9 11 14 17 19 21 22 22 21 19 16 13 12 14 15 15 14 14 15 15 16 17 18 19 21 22 25 26 28 29 30 31 31 33 36 40 42 39 34 30 24 13 11 13 12 10 10 10 10 10 10
5 5 6 5 4 4 3 5 8 11 12 11 10 10 10 11 12 13 14 14 13 13 13 12 12 11 10 10 10 10 9 9 9 9 11 13 16 18 20 21 22 22 20 19 18 14 10 9 10 11 11 12 12 12 13 15 17 18 19 20 22 24 26 28 29 30 31 31 32 35 39 41 38 33 29 22 10 11 14 12 11 11 11 11 10
5 5 5 4 3 4 5 8 11 12 12 11 11 11 12 12 13 13 13 13 12 12 11 10 9 9 9 9 10 10 10 11 11 13 14 16 18 19 21 22 24 22 20 19 19 18 13 7 6 7 8 9 10 11 13 15 17 18 19 19 20 21 23 25 27 28 29 30 30 30 33 37 39 37 33 29 21 10 11 15 14 13 13 12 10
5 5 4 2 4 7 9 11 12 13 12 12 13 13 13 13 13 13 12 12 11 10 8 7 7 8 9 10 11 12 13 14 15 16 17 18 19 20 21 22 24 23 20 19 20 21 18 12 7 5 6 8 10 12 15 16 18 19 21 20 20 21 22 23 25 27 28 28 28 29 29 31 35 38 37 33 27 20 10 11 16 16 14 13 11
4 3 2 4 8 10 12 13 13 13 13 14 14 14 14 13 13 12 11 10 9 8 7 7 7 8 10 11 12 13 14 14 16 17 18 19 20 19 20 22 24 23 21 21 21 22 21 17 13 9 8 10 12 14 16 17 19 21 22 22 22 23 23 24 24 25 26 27 28 28 28 27 29 32 36 36 32 29 23 13 10 15 17 16 13
2 2 4 8 10 12 13 13 13 14 15 16 15 14 13 12 11 10 9 8 7 7 7 8 9 10 11 12 13 14 14 14 16 17 18 19 19 19 20 22 23 23 22 22 22 23 22 20 17 15 14 14 16 17 17 18 20 21 22 23 24 24 25 25 25 25 26 27 27 29 29 28 27 27 30 34 35 33 31 27 17 8 14 17 15
2 4 8 10 11 12 13 13 14 16 17 16 14 13 12 11 10 9 8 8 8 8 9 10 10 11 12 13 15 16 16 16 17 17 18 19 19 19 20 22 22 23 22 22 22 23 22 22 20 19 18 18 18 19 20 20 21 21 22 23 24 24 25 25 25 25 26 27 27 28 30 30 29 28 27 29 31 33 34 33 29 19 8 12 15
5 8 10 11 11 12 13 15 17 18 17 15 14 13 12 11 10 10 9 9 9 10 10 11 11 12 13 14 16 16 17 17 17 17 18 19 19 20 20 21 22 22 22 22 22 22 23 23 22 21 19 19 19 20 21 21 21 22 22 23 24 25 25 25 25 26 27 27 28 28 29 30 30 30 29 28 28 30 32 33 32 29 19 6 10
8 11 11 11 12 13 14 16 18 17 16 15 14 13 12 11 10 10 9 10 10 10 11 11 12 12 13 14 16 16 17 17 17 18 18 19 20 20 21 22 23 22 22 22 23 23 24 23 22 21 20 19 18 19 20 21 22 23 24 24 24 24 25 25 26 26 27 28 29 29 29 29 30 30 31 31 29 28 29 29 29 31 28 17 5
12 12 12 12 13 14 16 17 17 16 15 15 14 13 12 11 10 9 9 9 10 10 11 11 12 12 13 14 15 16 17 17 18 19 19 20 21 22 22 23 23 23 23 22 23 24 24 24 22 21 20 19 19 19 19 21 22 23 24 25 25 25 24 24 25 25 27 28 29 30 30 30 30 30 30 31 30 29 28 25 25 28 30 27 19
14 13 13 14 15 17 18 17 16 16 15 14 13 12 11 10 9 8 8 9 9 10 10 11 12 13 13 14 15 16 17 18 19 20 20 21 22 23 23 24 24 24 24 24 24 24 24 24 22 21 20 19 20 20 20 21 22 23 24 25 25 25 24 23 24 25 26 27 29 29 30 30 30 30 30 31 31 30 29 25 24 25 27 28 27
15 14 15 16 17 19 18 17 16 16 15 14 13 12 10 9 8 8 8 8 9 9 10 11 12 13 14 15 16 17 18 18 20 21 21 22 23 24 24 25 26 26 26 26 26 25 25 24 23 22 21 21 21 21 22 23 23 23 23 23 24 24 24 24 23 24 25 26 28 29 30 30 30 30 30 30 30 30 29 28 26 24 23 25 26
16 17 18 18 19 19 18 17 16 15 14 12 11 10 9 8 8 7 8 8 9 9 10 11 12 13 14 15 16 17 18 19 21 22 22 22 23 24 25 26 26 27 27 27 27 26 26 25 24 23 22 21 22 22 24 25 26 25 24 23 22 22 22 23 23 24 25 26 27 28 30 30 30 30 29 29 28 29 29 29 27 25 23 22 22
18 19 19 19 19 18 17 17 16 15 13 11 10 9 8 8 7 7 7 8 9 9 10 11 11 12 14 15 16 17 19 20 21 21 21 22 23 24 25 26 27 28 29 29 28 28 27 26 25 23 22 22 22 22 23 25 26 25 25 23 21 20 21 22 23 24 25 26 27 28 29 30 31 31 30 29 28 27 27 27 28 27 24 23 21
20 20 20 19 18 18 17 16 16 14 12 11 9 8 7 7 6 7 8 8 9 9 9 10 11 12 13 14 16 18 19 20 20 20 21 22 23 24 25 27 28 29 29 30 30 29 28 27 26 24 23 23 23 23 23 24 24 24 24 23 22 21 22 22 23 25 26 26 27 28 30 31 31 32 32 31 29 27 25 25 26 26 25 24 21
21 21 20 19 18 17 16 16 16 14 12 11 9 7 6 6 6 6 7 8 8 9 9 10 10 12 13 14 16 17 18 19 20 20 21 23 24 25 26 27 28 29 29 30 30 30 29 28 27 26 25 24 24 23 24 24 24 24 24 23 22 22 22 23 24 26 27 28 28 29 30 31 32 32 32 31 31 29 26 25 24 24 24 24 22
22 21 21 19 17 16 16 16 15 14 12 10 8 6 5 5 5 6 7 8 8 9 9 10 11 12 13 14 16 17 18 19 19 21 22 24 24 25 26 27 27 28 29 30 30 30 30 29 28 28 27 26 25 23 24 25 26 26 25 24 22 22 23 25 27 28 28 29 30 30 31 32 32 32 32 31 31 30 28 25 24 23 23 22 22
22 21 20 18 17 15 15 15 15 14 12 9 7 5 4 4 4 5 6 7 8 9 10 11 12 13 14 15 16 17 17 17 19 20 22 23 24 25 26 27 27 28 29 30 30 30 30 29 29 29 29 28 27 26 25 26 27 27 26 25 23 23 25 28 30 30 30 31 31 31 31 32 33 33 33 32 31 30 29 27 25 24 22 22 21
21 19 18 18 16 14 14 13 14 13 11 9 7 5 4 3 4 5 6 7 8 9 10 11 12 13 14 15 16 16 16 16 18 20 22 23 24 25 26 27 27 28 29 30 31 31 31 31 31 31 31 30 30 29 28 29 29 28 28 27 26 27 29 32 32 31 31 32 32 32 32 33 34 34 34 34 33 31 30 29 27 25 23 22 21
20 19 17 17 15 13 12 12 13 12 11 9 6 4 2 2 3 4 6 7 8 9 10 11 12 13 14 15 16 16 15 16 17 19 21 22 23 25 26 27 28 29 30 30 31 31 32 32 32 32 32 32 32 32 31 31 30 30 29 29 30 31 33 34 34 33 32 33 33 33 33 34 35 35 35 35 35 33 32 31 29 27 24 23 22
20 19 17 16 15 13 10 10 11 11 10 8 5 3 1 1 2 4 6 8 9 10 11 12 13 14 15 15 15 15 15 16 17 18 20 21 23 25 26 27 28 29 30 30 31 31 32 32 32 32 32 33 33 33 33 32 31 31 30 31 32 33 34 34 34 33 32 33 34 34 34 35 36 37 37 36 35 35 34 34 32 30 27 24 23
19 19 17 16 16 13 9 9 10 10 9 7 5 3 2 2 3 5 7 8 9 11 12 13 14 15 15 15 15 15 15 16 17 18 19 21 22 24 25 27 27 28 29 30 30 31 31 31 32 32 32 33 33 34 33 33 33 32 32 32 33 33 34 34 34 33 32 33 34 35 35 35 36 37 37 37 36 35 35 35 34 33 31 27 25
18 18 17 15 15 13 9 9 10 10 9 8 6 4 3 4 4 6 7 9 10 11 12 13 15 15 16 15 15 14 15 16 17 18 19 20 22 23 25 26 27 28 29 29 30 30 31 31 32 32 32 33 33 34 33 34 34 34 34 34 34 35 35 35 35 34 33 33 35 36 36 37 37 38 38 38 37 36 36 35 36 35 33 31 28
17 17 16 15 14 12 8 7 9 9 9 8 7 6 5 4 5 6 7 9 10 11 12 13 15 16 16 15 14 14 15 16 17 18 19 20 21 22 24 25 26 27 28 29 30 30 30 31 31 32 32 33 33 33 33 33 34 34 35 35 35 35 36 36 36 35 35 35 36 36 37 38 38 38 38 38 38 37 36 36 36 36 35 33 31
16 16 15 14 14 11 8 7 9 9 9 9 8 7 6 6 6 6 6 8 9 10 11 13 14 15 15 14 14 15 16 17 17 18 19 20 21 22 23 24 26 28 28 29 29 29 30 30 31 31 32 32 31 31 31 31 32 32 33 34 34 35 35 35 35 35 35 36 36 37 37 38 38 38 38 38 38 37 37 37 36 36 36 34 32
16 16 15 14 14 12 10 9 10 10 10 10 9 9 8 8 7 7 7 7 9 10 11 12 13 15 15 14 14 16 17 17 18 19 20 20 21 21 22 24 27 28 29 29 29 30 30 30 30 31 31 31 31 31 30 30 30 31 31 32 33 33 34 34 34 34 34 34 35 36 37 37 38 39 39 39 39 39 38 37 37 36 36 35 34
17 16 16 15 15 14 12 12 12 12 12 11 11 11 11 10 10 9 8 8 8 9 11 12 13 14 14 14 14 16 17 18 18 19 20 21 22 22 23 25 27 28 29 29 29 30 30 30 30 30 30 30 31 31 31 31 31 31 31 32 33 34 34 34 35 34 34 34 34 35 36 37 37 38 40 40 41 40 40 39 38 37 35 35 35
18 17 16 16 15 15 14 14 14 13 13 13 13 13 12 12 12 11 11 10 10 9 10 11 12 13 14 14 14 16 18 19 19 20 21 22 22 23 24 26 27 28 29 30 30 31 31 31 31 30 31 31 31 32 32 32 32 32 33 34 34 35 36 36 36 36 36 36 36 36 36 37 37 38 39 40 41 41 41 40 40 38 37 35 35
Wind_Direction
290 291 295 297 294 289 285 281 280 277 276 277 280 282 284 287 289 289 287 288 296 301 309 318 325 328 330 332 333 333 333 334 340 345 349 351 354 5 22 35 63 43 14 11 12 22 25 19 18 23 31 32 38 46 50 49 52 56 58 57 52 49 45 45 45 44 42 39 35 33 32 29 26 21 14 5 357 348 337 328 323 326 340 352 357
297 298 296 298 298 295 291 285 283 281 281 283 287 290 292 293 292 292 289 291 299 301 304 311 317 322 325 329 331 331 331 337 346 350 352 356 4 22 32 34 50 22 10 6 10 22 21 17 15 20 28 37 42 41 44 45 53 62 63 56 49 45 44 43 43 43 40 39 37 35 33 30 27 24 20 10 6 4 357 343 331 331 339 353 1
296 297 297 299 299 296 295 292 291 292 294 295 298 299 298 298 297 296 294 298 304 301 302 308 314 319 323 328 330 329 332 342 350 353 357 6 18 37 36 28 32 21 15 8 9 15 12 10 8 16 26 35 48 44 41 41 44 58 61 51 45 41 41 40 37 38 34 37 38 35 33 32 28 23 20 14 12 13 9 358 346 340 343 351 0
292 293 296 299 299 298 299 300 301 304 306 308 307 305 302 303 304 302 298 302 305 304 306 311 315 319 324 328 327 328 337 346 352 358 7 21 33 41 34 24 25 21 17 12 6 358 356 359 2 7 19 27 34 36 26 22 24 30 31 22 27 30 35 36 34 35 29 31 33 30 30 32 31 25 20 17 14 12 10 6 359 353 352 352 356
294 295 298 300 300 301 303 307 309 312 313 313 311 307 307 310 312 310 305 305 306 308 311 314 317 322 326 326 327 334 346 354 4 13 25 37 41 37 29 21 18 14 11 9 1 349 345 349 354 355 9 18 13 22 7 353 0 357 354 345 346 352 356 13 23 24 18 21 20 18 21 26 29 27 21 17 14 9 7 9 9 8 3 358 355
298 299 300 301 301 303 308 312 314 316 315 313 312 311 312 314 315 314 312 310 310 311 314 317 321 325 327 328 334 348 359 11 22 31 41 44 40 34 28 21 17 11 6 4 358 350 346 348 347 345 357 5 8 20 4 338 336 335 338 332 330 331 333 352 6 359 348 348 359 3 7 11 16 20 18 14 12 8 5 7 12 16 13 10 2
299 299 301 302 302 306 312 316 319 320 315 312 313 315 315 314 314 313 314 314 314 315 319 322 325 328 331 337 349 4 18 29 37 43 46 43 37 31 26 20 16 12 9 7 3 357 353 350 344 337 339 356 14 17 358 329 317 316 318 314 316 320 322 336 353 339 322 322 341 350 351 355 358 3 8 8 8 6 3 4 11 18 20 20 13
299 300 301 302 305 311 316 320 323 321 317 316 317 318 315 314 313 313 315 318 320 322 326 328 331 335 342 352 3 23 37 43 47 49 45 40 34 28 26 24 24 25 25 22 17 13 5 354 340 325 317 334 0 342 310 302 302 304 302 303 308 315 317 314 321 317 307 313 328 336 338 343 346 348 354 357 359 2 1 3 10 13 17 22 26
300 300 302 304 308 313 320 325 325 321 319 318 318 316 315 314 312 313 318 323 326 330 333 335 339 349 359 3 19 40 48 52 52 49 43 38 37 39 38 37 36 33 31 25 18 13 7 0 349 332 314 308 297 280 280 287 289 297 313 320 319 318 317 305 299 304 306 313 319 323 328 332 333 337 342 347 347 354 359 1 6 7 11 19 25
299 300 302 305 309 316 325 328 326 323 319 314 311 311 313 313 313 316 323 328 332 337 339 343 354 8 8 13 36 50 54 56 52 49 50 52 54 53 50 47 42 36 31 24 16 9 6 5 2 358 343 317 279 267 273 279 282 294 317 328 325 325 323 315 303 298 304 311 310 311 318 322 325 326 332 338 339 345 353 357 2 3 7 18 23
297 297 299 304 312 321 326 327 325 322 317 311 307 308 311 313 318 324 330 335 339 343 347 359 14 17 13 28 49 56 58 58 58 65 69 67 62 58 54 50 45 40 36 30 22 14 9 6 5 10 6 348 294 252 254 266 285 306 330 331 329 332 334 333 324 309 301 300 298 304 311 313 317 319 321 329 334 334 341 350 358 359 3 15 22
293 294 300 309 317 323 325 324 323 320 317 313 312 314 316 321 327 331 337 343 346 351 4 19 23 21 27 46 60 64 65 66 74 82 78 68 61 57 52 48 44 40 37 34 28 21 14 9 7 13 17 8 346 275 250 262 294 324 353 349 344 344 344 341 337 326 307 292 289 299 305 307 313 315 311 316 327 328 330 341 350 354 359 8 19
292 298 307 315 319 321 322 322 320 320 319 318 320 322 325 330 334 340 345 348 356 12 27 30 31 35 49 64 71 72 70 76 87 89 78 66 59 55 50 46 43 39 35 33 30 26 21 17 15 22 32 29 18 3 322 291 313 344 5 4 358 351 348 341 339 337 321 300 295 299 300 303 308 313 310 305 311 320 324 332 340 347 352 358 9
297 306 313 317 319 320 321 320 320 321 322 324 327 330 334 338 342 346 350 357 18 37 40 42 46 54 66 74 76 74 74 81 94 92 78 66 59 53 49 45 42 40 36 33 31 28 25 23 25 31 42 45 39 32 27 26 12 21 17 3 357 354 353 349 345 343 330 312 302 299 298 298 300 303 305 303 300 304 313 322 328 336 343 349 356
307 314 318 320 320 320 320 320 322 324 326 330 335 341 344 345 348 351 359 20 44 51 51 53 56 63 72 75 75 72 73 83 97 93 77 66 58 51 46 42 39 37 36 34 32 30 29 28 31 36 43 50 54 52 49 47 41 37 20 359 356 359 358 353 344 334 321 312 304 300 298 296 294 292 293 296 295 294 300 311 317 323 333 340 345
316 320 320 321 320 321 321 323 325 328 332 341 349 351 349 350 354 2 21 46 59 59 58 57 57 66 72 72 69 67 71 84 98 89 71 63 55 47 41 38 35 33 34 35 33 33 35 35 38 45 49 53 60 62 59 57 53 47 30 10 1 357 351 343 333 318 308 304 300 298 296 293 291 289 285 285 290 292 294 300 307 312 318 329 335
321 321 320 319 319 321 323 327 330 335 346 356 357 353 354 359 8 25 47 61 64 63 60 56 61 70 71 67 64 66 72 82 95 85 65 59 52 42 34 31 30 30 32 35 34 34 39 45 48 55 59 60 62 63 64 63 61 55 43 29 18 10 4 358 350 341 329 317 306 296 289 287 288 289 285 282 286 290 294 295 299 302 304 312 324
321 319 318 319 320 324 328 334 341 353 1 2 0 358 5 18 36 54 65 68 63 63 59 60 69 72 69 65 65 71 74 79 91 87 68 57 47 35 26 24 25 26 30 35 37 36 41 53 58 63 64 62 63 63 63 61 57 52 43 35 28 22 17 12 6 0 353 346 335 322 307 291 282 282 284 282 283 287 293 293 293 296 296 296 306
319 317 318 319 324 330 337 349 1 5 4 5 7 13 30 51 65 71 72 66 61 63 64 69 75 74 70 67 68 72 74 76 84 85 71 51 39 28 20 17 19 21 26 34 38 38 44 57 67 66 62 59 61 61 60 57 54 50 46 41 37 33 28 24 19 13 6 0 355 350 344 323 286 270 274 280 283 289 294 295 290 292 295 289 285
318 318 320 326 335 344 359 12 10 6 10 17 28 47 65 75 78 74 69 64 64 69 73 76 77 75 73 70 68 69 72 75 78 77 62 44 35 22 13 11 12 15 21 32 40 41 45 60 73 68 59 58 59 60 58 55 52 49 45 41 38 35 33 31 28 25 21 15 8 4 4 0 327 271 260 270 278 286 294 296 292 289 290 284 274
320 323 331 343 357 10 17 14 9 13 27 44 67 77 82 84 79 71 67 70 75 79 81 80 78 77 75 70 66 65 67 69 70 66 54 46 31 14 6 4 4 8 15 29 42 43 46 59 75 72 61 59 60 58 54 50 46 41 38 34 31 29 27 26 26 26 26 24 21 16 13 15 8 307 260 257 264 278 292 293 289 289 287 278 265
327 338 354 11 21 18 13 11 19 36 61 81 88 88 86 83 77 73 74 79 84 85 83 81 81 80 75 66 61 61 61 60 60 61 56 43 19 4 0 358 357 1 9 25 43 47 47 54 67 70 63 59 58 54 48 45 40 35 30 26 24 23 21 21 22 23 24 25 27 26 24 23 21 4 289 257 255 266 283 289 289 291 289 279 263
342 356 9 17 14 8 12 22 47 74 91 98 96 90 86 83 81 80 82 85 87 86 82 80 81 80 71 60 57 57 55 54 52 52 43 19 1 354 353 353 355 359 6 20 41 52 51 50 55 59 56 54 53 48 41 37 32 28 24 19 17 17 16 16 17 19 20 22 26 29 31 30 28 23 2 290 259 257 268 278 288 294 292 284 267
352 359 4 5 4 11 27 54 89 101 105 105 99 91 88 88 88 88 87 86 85 83 81 79 78 74 64 56 55 54 51 48 42 33 15 357 350 349 353 356 358 2 5 15 34 52 60 56 52 51 49 47 46 40 32 25 22 19 15 12 11 11 12 13 14 16 16 18 22 27 31 33 34 31 23 354 280 256 256 261 271 284 292 292 279
346 349 355 0 10 36 71 102 111 113 112 107 99 94 93 93 93 91 87 85 84 83 81 79 74 66 57 50 44 43 40 34 25 11 359 353 353 356 0 4 4 6 7 13 24 35 53 67 60 53 48 43 41 33 25 20 17 13 9 7 7 8 9 11 13 14 14 15 18 23 28 32 35 36 32 22 348 276 257 257 262 267 281 292 289
337 341 352 7 49 94 117 121 120 118 114 106 100 97 97 95 94 91 87 85 84 82 79 75 67 54 43 33 26 23 19 15 12 8 4 1 3 6 8 10 10 10 12 15 19 21 25 44 62 60 50 40 34 25 18 14 13 11 8 6 7 8 8 10 12 14 15 15 16 19 23 28 32 35 36 34 27 354 276 260 263 265 273 283 288
326 341 4 62 119 128 130 127 124 120 113 105 101 99 98 97 95 92 89 87 82 77 72 63 48 35 25 20 18 14 12 14 16 15 11 9 10 10 11 14 15 16 17 17 18 18 18 19 24 36 37 27 19 13 9 6 7 10 9 8 9 9 11 11 12 14 15 17 18 19 21 24 27 31 33 36 36 31 3 282 263 260 268 275 280
321 0 73 134 137 136 134 131 126 118 110 106 103 101 100 100 99 96 91 84 74 65 52 41 30 26 24 22 19 15 15 17 17 15 12 12 13 12 13 15 16 18 20 20 19 21 22 21 18 17 14 8 8 10 11 9 11 13 13 12 13 13 15 15 15 16 16 17 18 20 22 22 24 27 29 32 35 36 32 11 297 262 259 265 272
319 82 140 145 141 140 136 131 123 115 111 109 107 105 104 104 102 97 89 78 67 57 46 38 33 31 30 27 23 21 23 21 16 13 13 15 16 14 15 15 14 16 19 21 23 24 25 26 24 21 16 11 12 16 17 16 16 17 16 15 16 17 17 17 17 18 19 17 17 19 21 21 21 23 25 28 31 32 33 31 19 321 264 258 267
131 137 152 149 144 142 135 128 121 116 114 113 111 109 108 106 102 96 86 77 68 59 50 43 38 36 34 29 25 24 27 24 18 17 17 18 18 17 17 15 11 11 15 18 21 22 23 24 25 23 19 17 16 17 19 17 16 17 18 16 16 17 18 18 17 17 18 18 17 17 19 19 18 19 20 22 25 27 30 32 29 22 336 262 258
143 155 157 151 147 141 132 126 121 119 117 115 113 111 108 104 100 93 84 74 64 57 50 43 39 37 34 29 24 23 25 24 21 21 22 20 19 20 19 14 9 10 12 13 16 17 17 18 20 21 20 18 16 14 14 14 12 14 16 15 15 16 16 16 17 17 17 16 16 15 16 17 17 16 16 17 18 20 25 29 27 25 24 346 257
155 162 158 152 147 138 131 127 125 121 118 115 112 110 107 103 97 89 80 68 60 52 45 39 36 34 31 26 23 22 23 23 24 25 25 23 22 22 19 16 13 14 15 15 14 13 12 11 11 13 15 17 16 13 9 9 9 9 11 12 12 13 14 14 15 17 18 17 16 16 15 15 15 15 14 14 15 13 18 25 22 21 26 27 356
163 164 157 153 146 137 133 131 128 123 119 116 113 110 106 101 94 84 75 64 58 49 42 35 33 32 29 23 21 21 22 23 25 26 26 25 23 22 21 21 20 20 19 17 13 10 7 6 6 7 8 8 9 8 6 5 5 4 4 7 8 8 10 11 12 14 17 16 16 16 16 15 14 13 12 10 11 11 14 18 13 15 22 24 24
167 162 156 151 143 137 135 133 129 124 120 118 114 110 105 97 88 78 67 59 53 46 41 35 33 32 30 26 23 22 24 24 24 25 26 24 22 23 23 22 22 20 19 17 13 9 6 5 6 6 5 3 1 0 359 359 0 358 357 360 2 3 4 6 8 10 12 12 12 12 13 14 14 12 11 9 8 8 10 10 6 8 15 19 24
166 159 153 148 142 138 136 134 130 126 122 120 117 110 101 92 81 72 61 53 47 44 41 36 33 33 31 29 26 24 25 24 24 25 26 24 23 24 24 23 22 20 18 16 15 13 10 9 9 10 9 6 3 359 355 353 353 352 351 352 354 357 360 1 2 4 7 8 6 6 7 8 9 9 9 8 7 5 5 6 4 2 5 12 19
163 156 151 146 142 139 136 135 131 128 126 123 119 109 98 88 80 69 57 48 46 46 41 35 32 31 30 29 28 27 26 25 26 27 26 25 24 24 24 24 22 21 19 17 16 15 14 13 11 11 10 6 3 358 353 349 348 347 347 347 348 351 356 357 357 358 1 2 1 360 360 1 2 3 4 5 5 4 2 2 3 0 358 1 8
160 155 151 147 144 140 138 137 134 133 131 128 121 108 96 85 76 64 52 45 43 43 39 32 30 28 28 29 28 27 27 27 27 27 24 23 22 23 23 23 22 21 20 18 17 16 14 13 12 10 7 3 359 357 354 351 350 349 348 348 346 347 352 355 354 355 356 358 358 355 354 355 356 357 358 359 360 0 360 359 359 359 357 353 356
159 157 154 150 145 142 140 140 140 138 136 131 122 110 95 81 68 54 44 41 39 38 33 28 27 27 27 27 27 27 28 27 26 24 21 20 21 21 20 20 20 20 20 19 18 16 14 12 11 9 7 5 3 2 2 1 359 356 354 353 351 349 352 355 353 353 354 354 353 352 352 353 352 353 353 353 354 356 356 356 355 355 355 352 349
161 160 157 153 147 143 143 144 144 143 140 134 126 113 96 80 63 46 37 36 34 30 26 23 23 26 26 25 25 25 25 24 22 20 18 18 19 18 18 18 18 18 18 19 18 18 17 16 13 11 10 9 9 8 8 7 5 3 1 359 358 357 357 356 353 351 351 351 350 350 351 353 352 351 351 350 350 352 352 352 351 351 351 351 347
164 164 162 157 150 144 145 148 149 148 144 139 132 118 98 81 60 41 32 30 27 23 18 15 17 21 22 22 24 23 22 20 17 15 15 16 16 16 16 16 15 16 16 16 17 17 18 19 17 15 14 12 11 8 6 5 4 3 1 1 1 1 359 356 352 350 349 349 350 350 352 353 353 353 352 350 349 349 350 349 347 347 346 346 346
169 168 166 161 153 148 150 152 154 154 152 149 141 128 109 85 61 38 30 26 21 16 11 9 10 14 17 18 20 20 19 15 12 11 12 12 13 12 13 13 13 13 13 14 15 15 16 18 18 17 16 13 10 6 3 1 1 359 357 355 355 354 353 351 348 347 347 348 349 351 351 351 353 354 353 351 349 348 348 347 344 343 341 340 340
172 170 170 166 159 155 156 158 160 161 162 160 155 146 125 92 60 37 28 23 17 11 7 5 7 10 13 15 16 15 13 9 8 9 9 9 8 8 9 9 10 10 11 12 13 12 13 15 16 16 16 14 12 8 5 2 359 356 353 350 348 346 345 344 343 343 344 347 349 349 349 350 351 353 352 351 350 349 346 345 343 340 338 335 333
176 173 173 172 169 167 167 168 168 168 170 171 168 162 145 94 53 30 22 17 12 6 3 2 4 7 9 12 12 10 6 3 4 6 6 5 4 5 6 6 7 8 8 10 11 10 10 12 13 14 13 12 12 10 7 4 0 356 352 348 345 343 342 341 341 340 341 344 346 347 347 348 350 351 351 350 349 348 346 344 341 338 335 332 329
180 178 176 177 178 178 179 179 176 175 176 179 180 187 198 0 9 10 10 9 7 4 0 359 1 4 6 8 8 4 359 357 359 2 2 2 2 3 4 4 5 5 6 8 8 7 7 8 9 10 10 10 10 9 7 5 1 358 354 350 347 344 343 342 341 339 338 340 343 346 346 347 348 350 350 349 348 347 346 344 341 337 334 330 326
186 184 183 183 184 184 185 185 181 181 182 187 197 217 260 311 339 352 357 1 2 1 358 356 357 1 3 4 4 358 353 352 354 357 358 359 0 1 2 2 3 3 4 6 6 5 4 5 6 6 7 8 8 7 6 3 1 358 356 353 351 348 346 345 343 340 338 339 341 343 344 346 347 348 348 348 348 346 344 343 340 336 333 330 325
191 191 192 192 190 190 191 189 186 187 190 197 209 229 264 297 323 340 347 352 356 357 356 355 356 359 0 359 357 352 348 348 351 354 355 357 358 0 1 1 1 2 3 4 5 4 2 2 2 3 5 6 5 4 3 1 360 358 356 354 352 351 349 347 345 343 340 339 340 342 342 344 345 346 346 346 346 345 344 343 341 337 333 330 326
195 198 201 201 200 199 203 199 196 197 198 206 218 232 255 278 304 324 336 342 347 350 351 351 354 358 359 355 351 346 342 343 347 350 351 353 355 358 0 0 360 -0 1 4 4 2 1 1 -0 0 3 3 2 1 -0 359 358 356 355 354 352 351 350 348 346 344 342 340 340 341 341 341 342 343 344 345 344 344 343 343 341 339 335 330 326
197 202 207 209 208 211 220 216 208 209 210 216 228 239 252 266 284 302 319 329 336 341 344 346 351 356 358 354 345 339 337 339 343 345 346 348 351 355 359 359 359 358 359 2 2 1 1 -0 358 359 0 359 358 357 357 357 356 355 354 353 352 351 350 349 347 345 344 342 340 339 339 339 339 340 341 342 342 342 342 342 341 340 337 333 327
202 205 209 212 213 217 226 223 217 218 219 224 234 245 253 262 272 283 297 311 322 330 335 340 347 353 357 353 342 335 333 335 338 340 341 344 346 349 351 352 354 355 356 358 360 -0 -0 359 358 358 357 356 355 354 354 354 354 354 353 352 351 350 349 348 347 345 344 342 340 338 338 337 337 338 339 339 340 340 340 340 340 340 338 335 331
207 209 211 212 213 218 225 225 224 223 225 229 236 245 254 261 268 275 282 291 305 318 327 333 341 349 354 351 340 333 330 330 334 337 337 340 342 343 342 342 346 350 353 355 356 357 357 357 357 357 355 353 353 352 352 352 352 352 352 352 351 350 349 347 346 345 344 343 341 338 337 336 336 336 337 337 338 338 338 338 338 338 338 336 333
212 213 214 215 216 220 224 225 226 228 231 234 238 244 252 260 268 272 275 281 290 304 316 325 333 343 350 348 337 331 328 328 332 335 335 337 340 342 341 340 341 344 348 351 353 354 354 355 355 355 354 353 352 351 350 350 351 351 351 351 351 350 348 346 345 343 343 342 341 339 337 336 336 335 335 335 336 336 336 336 336 336 336 336 334
Height
11008 11006 11005 11004 11003 11002 11000 10998 10996 10994 10992 10990 10989 10987 10986 10984 10982 10980 10980 10979 10978 10977 10976 10973 10970 10968 10965 10963 10961 10959 10957 10954 10952 10949 10948 10947 10946 10944 10943 10943 10943 10943 10942 10941 10940 10939 10938 10937 10935 10934 10932 10932 10931 10930 10929 10928 10928 10927 10927 10927 10927 10926 10926 10926 10925 10925 10924 10924 10923 10923 10922 10922 10921 10920 10920 10919 10918 10918 10917 10916 10916 10915 10914 10913 10913
11006 11004 11003 11002 11000 10999 10997 10996 10994 10992 10990 10989 10987 10986 10984 10983 10981 10980 10979 10979 10978 10976 10974 10972 10969 10967 10965 10963 10961 10958 10956 10953 10951 10948 10947 10946 10945 10944 10943 10943 10943 10943 10943 10942 10941 10940 10938 10937 10936 10934 10933 10932 10931 10930 10930 10929 10928 10928 10928 10927 10927 10927 10926 10926 10926 10926 10925 10925 10924 10924 10923 10923 10922 10921 10920 10920 10919 10918 10917 10916 10916 10915 10915 10914 10913
11004 11002 11001 11000 10998 10996 10995 10994 10992 10991 10989 10988 10986 10985 10984 10982 10981 10979 10978 10978 10977 10975 10973 10971 10969 10967 10964 10962 10960 10957 10954 10952 10950 10948 10947 10946 10945 10944 10944 10944 10944 10944 10943 10942 10941 10940 10938 10937 10936 10935 10933 10932 10931 10930 10930 10929 10929 10928 10927 10927 10927 10927 10926 10926 10926 10926 10926 10925 10925 10924 10924 10924 10923 10922 10921 10920 10919 10919 10918 10917 10917 10916 10915 10914 10914
11002 11001 10999 10998 10996 10994 10994 10992 10991 10990 10989 10987 10986 10984 10983 10981 10980 10978 10978 10977 10976 10974 10972 10970 10968 10966 10964 10961 10959 10956 10953 10951 10949 10948 10947 10946 10945 10945 10945 10945 10945 10944 10943 10942 10941 10940 10938 10937 10936 10935 10933 10932 10931 10931 10930 10929 10929 10928 10928 10927 10927 10927 10927 10926 10926 10926 10926 10926 10925 10925 10925 10924 10924 10923 10922 10921 10920 10920 10919 10918 10917 10916 10916 10915 10914
11000 10999 10997 10996 10994 10993 10992 10991 10990 10989 10988 10986 10985 10984 10982 10981 10979 10978 10977 10976 10974 10973 10970 10968 10967 10965 10963 10961 10958 10955 10952 10950 10949 10948 10948 10947 10946 10946 10946 10945 10945 10944 10943 10942 10941 10940 10938 10937 10936 10935 10933 10932 10932 10932 10931 10931 10930 10930 10929 10929 10928 10928 10927 10927 10927 10926 10926 10926 10926 10926 10925 10925 10924 10924 10923 10922 10921 10920 10919 10919 10918 10917 10916 10915 10915
10998 10997 10995 10994 10993 10992 10991 10989 10989 10987 10986 10985 10984 10983 10981 10980 10978 10977 10976 10975 10973 10971 10969 10967 10965 10964 10962 10960 10957 10955 10952 10950 10949 10949 10948 10948 10948 10947 10946 10945 10945 10944 10943 10942 10940 10939 10937 10936 10935 10934 10933 10932 10933 10934 10933 10932 10931 10931 10930 10930 10929 10929 10928 10928 10928 10927 10927 10927 10926 10926 10925 10925 10925 10924 10923 10923 10922 10921 10920 10919 10918 10917 10916 10915 10915
10996 10994 10993 10992 10991 10990 10990 10988 10987 10986 10985 10984 10983 10981 10980 10978 10977 10976 10975 10974 10971 10969 10967 10966 10964 10963 10961 10959 10957 10954 10952 10951 10950 10950 10950 10949 10948 10947 10946 10946 10945 10944 10942 10941 10939 10938 10936 10935 10934 10934 10933 10934 10935 10934 10933 10931 10931 10931 10930 10930 10929 10929 10929 10929 10928 10928 10927 10927 10927 10926 10926 10925 10925 10924 10924 10923 10923 10922 10921 10920 10919 10917 10916 10916 10915
10993 10992 10991 10991 10989 10989 10989 10987 10986 10985 10983 10982 10981 10980 10979 10977 10976 10975 10974 10972 10970 10968 10966 10965 10964 10963 10961 10959 10957 10955 10953 10952 10952 10951 10951 10950 10949 10948 10947 10946 10945 10943 10942 10940 10938 10937 10935 10934 10933 10933 10933 10936 10936 10933 10930 10930 10930 10929 10929 10929 10929 10929 10929 10929 10928 10928 10928 10927 10927 10927 10926 10925 10925 10924 10924 10924 10923 10923 10922 10921 10919 10918 10917 10916 10915
10992 10991 10990 10988 10987 10987 10987 10986 10984 10983 10982 10981 10980 10978 10977 10976 10975 10974 10972 10971 10968 10966 10965 10964 10963 10962 10961 10959 10957 10955 10954 10953 10953 10952 10952 10951 10949 10949 10948 10946 10945 10943 10942 10940 10938 10936 10935 10933 10933 10932 10932 10934 10934 10931 10930 10930 10929 10929 10930 10930 10930 10929 10929 10928 10928 10928 10928 10928 10927 10927 10926 10926 10925 10925 10924 10924 10924 10923 10922 10921 10920 10919 10918 10917 10915
10990 10989 10988 10987 10986 10985 10985 10984 10983 10982 10981 10980 10979 10977 10976 10975 10974 10972 10971 10969 10967 10966 10965 10964 10963 10962 10961 10959 10957 10956 10955 10954 10954 10953 10953 10952 10951 10950 10948 10947 10945 10944 10942 10940 10938 10936 10934 10933 10932 10931 10930 10931 10931 10930 10930 10929 10930 10931 10931 10931 10931 10930 10929 10929 10928 10927 10927 10927 10927 10927 10926 10926 10925 10925 10925 10924 10924 10923 10923 10922 10921 10920 10919 10918 10916
10989 10988 10987 10985 10984 10983 10983 10982 10981 10980 10979 10978 10977 10976 10975 10973 10972 10971 10970 10968 10967 10966 10965 10964 10964 10963 10961 10959 10958 10956 10956 10955 10955 10954 10954 10953 10952 10950 10949 10948 10946 10944 10942 10940 10938 10935 10934 10932 10931 10930 10929 10928 10928 10928 10929 10929 10930 10931 10932 10932 10931 10930 10929 10929 10928 10927 10927 10927 10927 10927 10926 10926 10925 10925 10924 10924 10924 10923 10923 10922 10921 10920 10919 10918 10917
10987 10986 10985 10984 10983 10982 10981 10980 10980 10979 10978 10977 10976 10975 10974 10972 10971 10970 10969 10968 10967 10966 10965 10965 10964 10963 10961 10960 10958 10957 10957 10956 10956 10955 10954 10953 10952 10951 10949 10948 10946 10944 10942 10940 10937 10935 10933 10932 10931 10930 10928 10927 10927 10928 10929 10930 10931 10931 10932 10932 10931 10930 10929 10928 10928 10927 10926 10926 10926 10926 10926 10925 10925 10924 10924 10924 10923 10923 10922 10922 10921 10920 10920 10919 10918
10986 10985 10983 10982 10981 10980 10980 10979 10978 10977 10977 10976 10975 10974 10972 10971 10970 10969 10969 10968 10967 10967 10966 10965 10964 10963 10962 10960 10959 10959 10958 10957 10957 10956 10955 10954 10952 10951 10950 10949 10947 10945 10943 10941 10938 10936 10934 10932 10931 10930 10928 10927 10927 10928 10929 10930 10931 10932 10933 10932 10932 10931 10929 10928 10927 10927 10926 10925 10925 10925 10925 10924 10924 10923 10923 10923 10923 10922 10922 10921 10921 10921 10920 10919 10919
10984 10983 10982 10981 10980 10979 10978 10977 10977 10976 10975 10974 10974 10973 10971 10971 10970 10969 10968 10968 10968 10967 10967 10966 10965 10964 10962 10961 10961 10960 10959 10958 10957 10956 10955 10954 10953 10952 10952 10950 10949 10947 10945 10942 10940 10937 10935 10933 10932 10931 10930 10928 10928 10928 10929 10931 10932 10933 10933 10933 10932 10931 10929 10928 10927 10926 10926 10925 10925 10924 10924 10923 10922 10922 10922 10921 10922 10922 10922 10921 10921 10921 10921 10920 10919
10983 10982 10981 10979 10978 10977 10977 10976 10975 10975 10974 10973 10973 10972 10971 10970 10970 10969 10969 10969 10968 10968 10967 10967 10966 10964 10963 10962 10962 10961 10960 10959 10958 10957 10956 10955 10955 10954 10953 10952 10950 10948 10946 10944 10942 10939 10937 10935 10934 10933 10932 10930 10930 10930 10930 10931 10933 10933 10934 10933 10932 10931 10930 10929 10928 10927 10925 10925 10924 10923 10922 10922 10921 10921 10920 10920 10920 10921 10921 10921 10921 10921 10921 10921 10920
10981 10980 10979 10978 10977 10976 10975 10975 10974 10974 10973 10973 10972 10972 10971 10970 10970 10969 10969 10969 10969 10969 10968 10967 10966 10965 10964 10963 10963 10962 10961 10960 10959 10958 10957 10957 10956 10955 10954 10953 10952 10950 10948 10946 10944 10942 10939 10937 10936 10935 10933 10933 10932 10932 10932 10933 10934 10935 10934 10934 10933 10932 10931 10929 10928 10927 10925 10924 10923 10922 10921 10920 10920 10919 10919 10919 10919 10920 10920 10920 10920 10921 10921 10921 10921
10980 10978 10977 10976 10976 10975 10974 10974 10973 10973 10973 10972 10972 10971 10971 10970 10970 10969 10970 10970 10969 10969 10969 10968 10967 10966 10965 10964 10963 10962 10962 10961 10960 10959 10959 10958 10957 10956 10955 10954 10953 10952 10950 10949 10947 10944 10942 10940 10939 10937 10936 10935 10935 10935 10935 10935 10936 10936 10935 10935 10933 10932 10931 10929 10928 10926 10925 10923 10922 10921 10920 10919 10919 10918 10918 10918 10918 10919 10919 10920 10920 10920 10921 10921 10921
10978 10977 10976 10975 10974 10973 10973 10973 10973 10972 10972 10972 10972 10971 10971 10970 10970 10970 10970 10970 10970 10970 10969 10968 10967 10966 10966 10965 10964 10963 10963 10962 10961 10961 10960 10959 10959 10958 10957 10955 10954 10953 10952 10951 10949 10947 10944 10942 10942 10940 10939 10939 10938 10938 10937 10937 10937 10936 10936 10935 10934 10932 10931 10929 10927 10926 10924 10923 10921 10920 10918 10918 10917 10917 10917 10917 10918 10918 10919 10919 10920 10920 10920 10920 10921
10977 10976 10975 10974 10973 10972 10972 10972 10972 10972 10972 10972 10971 10971 10971 10970 10970 10971 10971 10971 10971 10970 10970 10969 10968 10967 10967 10966 10965 10965 10964 10963 10963 10962 10962 10961 10960 10959 10958 10957 10956 10955 10954 10952 10951 10949 10946 10945 10944 10943 10942 10941 10941 10940 10939 10939 10938 10937 10936 10935 10934 10933 10932 10930 10928 10926 10924 10922 10920 10919 10917 10915 10915 10915 10916 10916 10917 10917 10918 10918 10919 10919 10919 10920 10920
10976 10975 10974 10973 10972 10972 10972 10972 10972 10972 10972 10971 10971 10971 10971 10970 10971 10971 10972 10972 10971 10971 10970 10969 10968 10968 10968 10967 10966 10966 10965 10965 10964 10964 10963 10962 10961 10960 10959 10958 10957 10956 10955 10954 10953 10951 10949 10947 10946 10945 10944 10943 10942 10942 10941 10940 10939 10938 10937 10936 10935 10934 10933 10931 10930 10928 10925 10922 10920 10918 10915 10913 10912 10913 10914 10915 10916 10917 10917 10918 10918 10918 10918 10919 10920
10975 10974 10973 10972 10972 10972 10972 10972 10972 10972 10972 10972 10971 10971 10971 10971 10972 10973 10973 10973 10972 10971 10971 10970 10969 10969 10969 10968 10967 10967 10966 10966 10966 10965 10964 10964 10963 10962 10960 10959 10958 10958 10957 10956 10954 10953 10951 10950 10948 10947 10946 10946 10944 10943 10942 10941 10940 10939 10939 10938 10936 10935 10934 10933 10931 10928 10926 10923 10920 10917 10915 10913 10911 10910 10912 10913 10915 10916 10916 10917 10917 10917 10918 10918 10919
10975 10974 10973 10972 10972 10972 10972 10972 10972 10972 10972 10972 10971 10971 10972 10972 10973 10974 10974 10973 10973 10972 10971 10971 10970 10970 10970 10969 10969 10968 10968 10967 10967 10966 10965 10965 10964 10963 10961 10960 10959 10959 10958 10957 10956 10954 10953 10952 10951 10949 10948 10948 10946 10945 10944 10943 10942 10941 10940 10939 10938 10936 10935 10933 10931 10929 10926 10923 10920 10918 10915 10913 10911 10909 10910 10912 10913 10914 10915 10916 10916 10916 10917 10917 10917
10975 10974 10973 10972 10972 10972 10972 10972 10972 10972 10972 10972 10972 10972 10973 10974 10974 10974 10974 10974 10973 10973 10972 10972 10972 10971 10971 10970 10970 10970 10969 10969 10968 10967 10966 10966 10965 10964 10963 10961 10960 10959 10958 10958 10957 10956 10954 10953 10952 10951 10950 10949 10948 10947 10946 10944 10943 10942 10941 10940 10938 10937 10936 10934 10932 10929 10927 10924 10922 10919 10916 10914 10912 10910 10909 10910 10912 10913 10914 10915 10915 10916 10916 10916 10917
10974 10974 10973 10972 10972 10972 10972 10972 10972 10972 10972 10972 10973 10974 10974 10974 10975 10975 10975 10974 10974 10974 10973 10973 10973 10972 10972 10972 10971 10971 10971 10970 10969 10968 10967 10967 10966 10965 10963 10962 10961 10960 10959 10958 10958 10957 10956 10955 10953 10953 10952 10951 10950 10949 10948 10946 10945 10943 10942 10941 10940 10938 10937 10935 10932 10930 10928 10925 10923 10921 10918 10916 10913 10911 10910 10910 10910 10912 10913 10914 10914 10915 10915 10915 10916
10974 10973 10973 10972 10972 10972 10972 10972 10972 10972 10973 10973 10974 10975 10975 10975 10975 10975 10975 10975 10975 10975 10974 10974 10974 10973 10973 10973 10972 10972 10971 10971 10970 10969 10968 10967 10966 10965 10964 10962 10961 10960 10959 10958 10958 10957 10957 10956 10955 10954 10953 10952 10951 10950 10949 10948 10946 10944 10943 10942 10941 10939 10938 10936 10933 10931 10929 10927 10925 10923 10921 10918 10916 10914 10912 10910 10910 10911 10912 10913 10913 10913 10914 10915 10915
10974 10973 10973 10972 10972 10972 10972 10973 10973 10973 10974 10974 10975 10975 10976 10976 10976 10976 10976 10976 10976 10976 10975 10975 10975 10974 10974 10973 10973 10972 10972 10971 10971 10970 10969 10968 10967 10966 10964 10963 10962 10961 10960 10959 10958 10957 10957 10957 10956 10955 10954 10953 10952 10950 10949 10948 10947 10945 10944 10942 10941 10940 10938 10936 10935 10932 10930 10928 10926 10924 10922 10920 10918 10916 10914 10912 10911 10910 10911 10912 10912 10913 10913 10913 10914
10974 10974 10973 10973 10972 10972 10973 10973 10974 10974 10975 10975 10976 10976 10976 10977 10977 10977 10977 10977 10977 10977 10977 10976 10976 10975 10974 10974 10973 10973 10972 10972 10971 10971 10970 10969 10968 10966 10965 10964 10962 10961 10960 10959 10958 10957 10956 10956 10956 10955 10954 10953 10952 10951 10949 10948 10947 10945 10944 10943 10941 10940 10939 10937 10935 10934 10931 10929 10927 10926 10924 10922 10920 10918 10916 10914 10912 10911 10911 10911 10911 10912 10912 10912 10913
10974 10974 10973 10973 10973 10973 10973 10974 10974 10975 10975 10976 10976 10977 10977 10977 10978 10978 10978 10978 10978 10977 10977 10977 10976 10976 10975 10975 10974 10973 10973 10972 10972 10971 10970 10969 10968 10967 10966 10964 10963 10962 10961 10960 10958 10957 10956 10956 10955 10955 10954 10954 10953 10951 10950 10949 10947 10945 10944 10943 10941 10940 10938 10937 10936 10934 10933 10931 10929 10927 10925 10924 10922 10920 10918 10916 10914 10912 10911 10910 10910 10910 10910 10911 10912
10974 10973 10973 10973 10973 10973 10974 10974 10975 10975 10976 10977 10977 10978 10978 10978 10979 10979 10979 10979 10978 10978 10978 10977 10976 10976 10975 10975 10975 10974 10974 10973 10972 10972 10971 10970 10969 10968 10966 10964 10963 10962 10960 10959 10958 10957 10956 10956 10955 10955 10954 10953 10952 10951 10950 10949 10947 10946 10944 10943 10941 10939 10938 10937 10936 10935 10934 10932 10930 10928 10926 10925 10923 10921 10919 10917 10915 10914 10911 10910 10909 10908 10908 10909 10910
10973 10973 10973 10974 10974 10974 10974 10974 10975 10976 10976 10977 10978 10978 10979 10979 10979 10980 10980 10979 10979 10978 10978 10977 10977 10976 10976 10975 10975 10975 10974 10974 10973 10972 10971 10971 10970 10969 10967 10965 10964 10962 10960 10959 10958 10957 10956 10956 10955 10954 10953 10953 10951 10950 10949 10948 10947 10946 10944 10943 10941 10940 10938 10937 10936 10935 10934 10933 10931 10930 10928 10925 10923 10921 10920 10918 10916 10915 10913 10911 10909 10907 10906 10907 10908
10973 10973 10974 10974 10974 10974 10974 10975 10975 10976 10977 10978 10978 10979 10979 10980 10980 10980 10980 10980 10979 10979 10978 10978 10977 10977 10976 10976 10976 10975 10975 10974 10974 10973 10972 10971 10970 10969 10967 10966 10965 10963 10962 10960 10959 10958 10957 10956 10954 10954 10953 10952 10951 10950 10948 10948 10947 10945 10944 10942 10941 10939 10938 10937 10936 10934 10933 10932 10931 10930 10928 10926 10924 10922 10920 10919 10917 10916 10914 10912 10910 10909 10907 10906 10907
10973 10974 10974 10974 10974 10975 10975 10976 10976 10977 10977 10978 10979 10979 10980 10980 10980 10980 10980 10980 10980 10979 10979 10978 10978 10977 10977 10977 10976 10976 10975 10975 10974 10973 10973 10972 10971 10969 10968 10967 10966 10964 10963 10962 10960 10959 10957 10956 10955 10954 10953 10952 10951 10950 10948 10947 10946 10944 10943 10942 10940 10939 10938 10936 10935 10934 10933 10932 10931 10930 10928 10927 10925 10922 10921 10920 10918 10917 10916 10914 10913 10912 10909 10908 10907
10973 10974 10974 10974 10975 10975 10976 10976 10977 10977 10978 10978 10979 10979 10980 10980 10980 10980 10980 10980 10980 10980 10979 10979 10978 10978 10978 10977 10977 10976 10976 10975 10975 10974 10973 10972 10971 10970 10969 10968 10966 10965 10964 10963 10961 10960 10958 10957 10955 10954 10953 10952 10951 10950 10949 10947 10945 10944 10942 10941 10940 10939 10937 10936 10935 10934 10933 10932 10930 10929 10928 10927 10925 10923 10921 10920 10919 10918 10917 10916 10915 10913 10911 10909 10907
10973 10974 10974 10975 10975 10975 10976 10977 10977 10978 10978 10979 10979 10980 10980 10980 10981 10981 10981 10981 10980 10980 10980 10979 10979 10979 10978 10978 10977 10977 10976 10975 10975 10974 10973 10973 10971 10970 10969 10968 10967 10965 10965 10964 10962 10960 10959 10957 10956 10954 10953 10952 10951 10950 10948 10947 10946 10944 10942 10941 10940 10938 10937 10936 10935 10934 10932 10931 10929 10929 10928 10927 10925 10924 10922 10920 10919 10918 10918 10917 10916 10914 10912 10910 10907
10973 10974 10974 10975 10975 10976 10977 10978 10978 10978 10979 10979 10980 10980 10981 10981 10981 10981 10981 10981 10981 10980 10980 10980 10979 10979 10978 10978 10977 10977 10976 10975 10975 10974 10973 10973 10972 10970 10969 10968 10967 10966 10965 10964 10962 10961 10959 10958 10956 10955 10954 10952 10951 10950 10948 10946 10945 10943 10942 10941 10939 10938 10937 10936 10934 10933 10932 10930 10929 10928 10927 10926 10925 10923 10922 10920 10919 10918 10917 10916 10915 10913 10912 10910 10908
10973 10974 10974 10975 10976 10977 10977 10978 10978 10979 10979 10980 10981 10981 10981 10982 10981 10981 10981 10981 10981 10981 10980 10980 10979 10979 10978 10978 10978 10977 10977 10976 10975 10974 10974 10973 10972 10971 10971 10970 10968 10967 10965 10964 10962 10961 10960 10958 10957 10955 10954 10953 10951 10950 10948 10946 10944 10942 10941 10940 10939 10938 10937 10936 10934 10932 10931 10930 10929 10927 10926 10925 10924 10923 10921 10920 10919 10917 10916 10915 10914 10913 10911 10910 10909
10973 10974 10975 10976 10976 10977 10978 10978 10979 10979 10980 10981 10981 10982 10982 10982 10982 10981 10981 10981 10981 10981 10981 10980 10980 10979 10979 10978 10978 10978 10977 10976 10976 10975 10975 10974 10973 10973 10971 10970 10969 10967 10966 10964 10963 10961 10960 10958 10957 10956 10954 10953 10951 10950 10948 10946 10944 10942 10940 10940 10939 10938 10937 10936 10934 10932 10931 10930 10929 10928 10926 10924 10923 10921 10920 10919 10918 10916 10915 10914 10913 10912 10910 10909 10909
10973 10974 10975 10976 10977 10978 10978 10979 10980 10980 10981 10981 10982 10982 10982 10982 10982 10982 10982 10981 10981 10981 10981 10980 10980 10980 10979 10979 10979 10978 10978 10977 10976 10976 10975 10975 10974 10973 10971 10970 10969 10967 10966 10965 10963 10962 10960 10959 10957 10956 10955 10953 10951 10950 10948 10947 10945 10943 10941 10940 10939 10938 10937 10936 10934 10933 10932 10930 10929 10928 10926 10924 10922 10920 10918 10917 10916 10915 10914 10913 10912 10911 10910 10908 10908
10973 10974 10975 10977 10977 10978 10979 10979 10980 10981 10981 10981 10982 10982 10982 10982 10982 10982 10982 10982 10982 10982 10981 10981 10981 10981 10980 10980 10979 10979 10978 10977 10976 10976 10975 10974 10973 10972 10971 10970 10969 10968 10967 10966 10964 10963 10961 10960 10958 10957 10955 10953 10951 10950 10948 10947 10946 10944 10942 10940 10939 10938 10937 10936 10934 10933 10932 10930 10929 10927 10926 10924 10922 10920 10917 10916 10914 10913 10912 10911 10910 10910 10909 10907 10906
10974 10975 10976 10977 10978 10978 10979 10980 10981 10981 10981 10981 10982 10982 10982 10982 10982 10982 10982 10982 10982 10982 10981 10981 10981 10981 10981 10980 10980 10979 10978 10977 10976 10975 10974 10973 10972 10972 10971 10971 10970 10969 10968 10967 10965 10964 10962 10961 10959 10957 10955 10953 10952 10951 10949 10947 10946 10944 10943 10941 10939 10938 10937 10935 10934 10932 10931 10930 10929 10927 10925 10923 10922 10919 10917 10915 10913 10912 10911 10910 10908 10908 10907 10906 10905
10974 10975 10976 10977 10978 10979 10980 10980 10981 10981 10981 10982 10982 10982 10982 10983 10983 10982 10982 10982 10982 10982 10982 10982 10981 10981 10981 10980 10980 10979 10978 10977 10976 10975 10974 10973 10973 10972 10972 10971 10971 10970 10969 10968 10966 10965 10963 10961 10959 10957 10955 10954 10953 10951 10949 10947 10946 10944 10943 10942 10940 10939 10937 10935 10933 10932 10930 10929 10928 10926 10925 10923 10921 10919 10917 10915 10913 10911 10909 10908 10907 10906 10905 10904 10903
10975 10976 10977 10978 10979 10980 10980 10981 10981 10981 10982 10982 10982 10983 10983 10983 10983 10983 10983 10983 10983 10983 10982 10982 10981 10981 10981 10980 10980 10980 10979 10978 10976 10975 10974 10974 10973 10972 10972 10972 10971 10970 10969 10968 10966 10965 10963 10961 10959 10957 10956 10954 10953 10951 10949 10948 10946 10945 10944 10942 10941 10939 10937 10935 10933 10931 10929 10928 10927 10925 10924 10922 10920 10918 10916 10914 10912 10910 10908 10907 10905 10904 10903 10902 10901
10975 10976 10977 10979 10980 10980 10981 10981 10981 10982 10982 10982 10983 10983 10983 10983 10983 10983 10983 10983 10983 10983 10982 10982 10982 10981 10981 10981 10981 10980 10979 10978 10977 10976 10975 10974 10974 10973 10973 10973 10972 10971 10969 10968 10966 10965 10963 10961 10959 10958 10956 10954 10953 10951 10949 10948 10946 10945 10944 10942 10940 10938 10936 10934 10931 10929 10928 10927 10925 10924 10922 10920 10918 10917 10915 10912 10910 10909 10907 10905 10904 10902 10901 10900 10898
10975 10976 10977 10979 10980 10981 10981 10982 10982 10982 10982 10983 10983 10983 10983 10983 10984 10983 10983 10983 10983 10983 10982 10982 10982 10982 10982 10982 10981 10981 10979 10978 10978 10977 10976 10976 10975 10974 10974 10973 10972 10971 10970 10968 10966 10965 10963 10961 10960 10958 10956 10954 10952 10951 10949 10947 10946 10945 10943 10941 10939 10937 10935 10933 10930 10928 10927 10925 10924 10923 10921 10919 10916 10915 10913 10911 10909 10907 10905 10903 10901 10900 10899 10898 10896
10975 10976 10978 10978 10979 10980 10981 10982 10982 10982 10982 10983 10983 10983 10983 10983 10983 10983 10983 10983 10983 10983 10982 10982 10982 10982 10982 10982 10982 10981 10980 10979 10978 10978 10977 10976 10976 10975 10974 10973 10972 10971 10970 10968 10967 10965 10964 10962 10960 10958 10956 10954 10952 10950 10949 10948 10946 10944 10942 10940 10938 10936 10934 10932 10930 10928 10926 10924 10923 10921 10920 10918 10916 10913 10911 10909 10907 10905 10903 10901 10899 10897 10896 10895 10894
10975 10977 10978 10979 10979 10980 10981 10981 10982 10982 10982 10982 10982 10983 10983 10983 10983 10983 10983 10983 10983 10983 10982 10982 10982 10983 10983 10982 10982 10981 10980 10979 10979 10978 10978 10977 10976 10975 10974 10973 10972 10971 10970 10968 10967 10966 10964 10962 10960 10958 10956 10954 10952 10951 10949 10948 10946 10944 10941 10939 10937 10935 10933 10931 10929 10927 10925 10923 10921 10919 10917 10916 10914 10912 10909 10907 10905 10904 10902 10899 10897 10895 10893 10891 10891
10975 10977 10978 10979 10979 10980 10981 10981 10981 10982 10982 10982 10982 10982 10982 10982 10982 10983 10983 10983 10983 10983 10983 10983 10983 10983 10983 10983 10982 10981 10980 10979 10979 10978 10978 10977 10976 10975 10974 10973 10972 10971 10970 10968 10967 10966 10964 10962 10960 10958 10955 10954 10952 10951 10950 10948 10946 10943 10941 10939 10936 10934 10932 10930 10928 10926 10924 10921 10920 10918 10916 10914 10912 10910 10908 10906 10904 10902 10900 10898 10896 10893 10891 10889 10887
10975 10977 10978 10979 10979 10980 10981 10981 10981 10981 10982 10982 10982 10982 10982 10982 10982 10982 10982 10982 10982 10983 10983 10983 10983 10983 10983 10983 10982 10981 10980 10979 10979 10978 10977 10977 10976 10975 10974 10973 10972 10971 10969 10968 10966 10965 10964 10962 10960 10958 10955 10954 10953 10952 10950 10949 10946 10944 10941 10939 10936 10934 10932 10930 10928 10926 10924 10921 10918 10917 10915 10913 10910 10908 10906 10904 10902 10900 10898 10896 10894 10892 10889 10887 10884
10975 10976 10977 10978 10979 10979 10980 10980 10980 10981 10981 10981 10981 10981 10981 10981 10981 10981 10982 10982 10982 10982 10982 10982 10983 10983 10983 10983 10981 10980 10979 10979 10978 10977 10977 10976 10975 10974 10973 10972 10971 10970 10968 10967 10965 10964 10963 10962 10960 10958 10956 10955 10953 10952 10950 10949 10947 10944 10942 10939 10937 10934 10932 10929 10927 10925 10923 10921 10919 10916 10914 10912 10909 10906 10903 10901 10899 10897 10896 10894 10893 10891 10888 10886 10883
10973 10974 10975 10976 10977 10978 10978 10978 10979 10979 10980 10980 10980 10980 10980 10980 10980 10981 10981 10981 10981 10981 10982 10982 10982 10982 10982 10982 10981 10980 10979 10978 10977 10977 10976 10975 10975 10974 10972 10971 10970 10969 10968 10966 10964 10963 10962 10961 10959 10958 10956 10954 10953 10951 10950 10948 10946 10943 10941 10939 10936 10933 10931 10928 10926 10924 10922 10920 10918 10915 10913 10910 10908 10905 10901 10898 10895 10894 10892 10891 10890 10888 10887 10884 10881
10971 10972 10973 10974 10975 10976 10977 10977 10977 10978 10978 10978 10979 10979 10979 10980 10980 10980 10980 10980 10980 10980 10981 10981 10981 10982 10982 10981 10980 10979 10978 10977 10977 10976 10975 10974 10974 10973 10972 10970 10969 10967 10966 10965 10963 10962 10961 10960 10958 10957 10955 10953 10951 10950 10948 10946 10944 10942 10939 10937 10935 10932 10930 10927 10924 10922 10920 10918 10916 10913 10911 10909 10906 10903 10900 10896 10893 10891 10889 10887 10885 10884 10883 10882 10879